Weather History for Chester, CT

Change the Weather History Date:

Saturday, April 20, 2013

  Actual Average (KHVN) Record (KHVN)
Temperature  
Mean Temperature 51 °F -  
Max Temperature 60 °F 57 °F 80 °F (2005)
Min Temperature 42 °F 41 °F 32 °F (1988)
Degree Days  
Heating Degree Days 14    
Growing Degree Days 1 (Base 50)    
Moisture  
Dew Point 36 °F    
Average Humidity 60    
Maximum Humidity 100    
Minimum Humidity 30    
Precipitation  
Precipitation 0.65 in - - ()
Sea Level Pressure  
Sea Level Pressure 29.93 in    
Wind  
Wind Speed 11 mph (NW)    
Max Wind Speed 20 mph    
Max Gust Speed 26 mph    
Visibility 9 miles    
Events Rain    
Averages and records for this station are not official NWS values.
T = Trace of Precipitation, MM = Missing Value Source: NWS Daily Summary

Daily Weather History Graph

Daily Weather History Graph

Search for Another Location

Airport:

Trip Planner

Search our weather history database for the weather conditions in past years. The results will help you decide how hot, cold, wet, or windy it might be!

Date:

Astronomy

Apr. 20, 2013 Rise Set
Actual Time 6:02 AM EDT 7:35 PM EDT
Civil Twilight 5:33 AM EDT 8:05 PM EDT
Nautical Twilight 4:58 AM EDT 8:40 PM EDT
Astronomical Twilight 4:20 AM EDT 9:17 PM EDT
Moon 2:13 PM EDT (4/20) 2:54 AM EDT (4/20)
Length of Visible Light 14h 31m
Length of Day
13h 33m
Waxing Gibbous, 71% of the Moon is Illuminated
Apr 20
Waxing Gibbous
Apr 25
Full
May 2
Last Quarter
May 9
New
May 18
First Quarter

Hourly Weather History & Observations

Time (EDT) Temp. Windchill Dew Point Humidity Pressure Visibility Wind Dir Wind Speed Gust Speed Precip Events Conditions
12:15 AM 60.8 °F - 60.8 °F 100% 29.70 in 5.0 mi SSW 19.6 mph 26.5 mph N/A   Overcast
12:35 AM 60.8 °F - 60.8 °F 100% 29.70 in 4.0 mi SSW 10.4 mph 21.9 mph N/A Rain Light Rain
12:55 AM 60.8 °F - 60.8 °F 100% 29.69 in 3.0 mi SW 13.8 mph 20.7 mph N/A   Light Drizzle
1:15 AM 59.0 °F - 59.0 °F 100% 29.68 in 3.0 mi SSW 11.5 mph - N/A   Overcast
1:55 AM 57.2 °F - 57.2 °F 100% 29.67 in 2.0 mi SW 13.8 mph 20.7 mph 0.03 in Rain Light Rain
2:15 AM 57.2 °F - 57.2 °F 100% 29.66 in 1.5 mi West 4.6 mph - 0.03 in Rain Rain
2:35 AM 57.2 °F - 57.2 °F 100% 29.67 in 9.0 mi West 3.5 mph - 0.04 in   Overcast
2:55 AM 57.2 °F - 57.2 °F 100% 29.66 in 10.0 mi West 3.5 mph - 0.04 in   Overcast
3:15 AM 57.2 °F - 57.2 °F 100% 29.67 in 9.0 mi West 4.6 mph - N/A Rain Light Rain
3:35 AM 55.4 °F - 55.4 °F 100% 29.70 in 5.0 mi WNW 4.6 mph - 0.04 in Rain Rain
3:55 AM 53.6 °F - 53.6 °F 100% 29.69 in 5.0 mi North 9.2 mph - 0.12 in Rain Heavy Rain
4:15 AM 51.8 °F - 51.8 °F 100% 29.71 in 4.0 mi North 8.1 mph - 0.08 in Rain Rain
4:35 AM 50.0 °F - 50.0 °F 100% 29.72 in 6.0 mi North 8.1 mph 16.1 mph 0.14 in Rain Light Rain
4:55 AM 48.2 °F - 48.2 °F 100% 29.74 in 5.0 mi North 11.5 mph 16.1 mph 0.19 in Rain Rain
5:15 AM 46.4 °F 41.1 °F 46.4 °F 100% 29.76 in 5.0 mi North 11.5 mph - 0.04 in Rain Rain
5:35 AM 44.6 °F 39.2 °F 44.6 °F 100% 29.79 in 4.0 mi NW 10.4 mph 17.3 mph 0.12 in Rain Rain
5:55 AM 44.6 °F 39.2 °F 44.6 °F 100% 29.80 in 3.0 mi North 10.4 mph - 0.18 in Rain Rain
6:15 AM 44.6 °F 39.7 °F 44.6 °F 100% 29.82 in 4.0 mi NNW 9.2 mph - 0.03 in Rain Rain
6:35 AM 42.8 °F 37.0 °F 42.8 °F 100% 29.84 in 4.0 mi North 10.4 mph - 0.09 in Rain Light Rain
6:55 AM 44.6 °F 39.7 °F 42.8 °F 93% 29.85 in 9.0 mi NNW 9.2 mph - 0.09 in   Overcast
7:15 AM 44.6 °F 38.8 °F 42.8 °F 93% 29.85 in 10.0 mi NNW 11.5 mph 19.6 mph N/A   Overcast
7:35 AM 44.6 °F 40.2 °F 42.8 °F 93% 29.85 in 10.0 mi NNW 8.1 mph 16.1 mph N/A   Overcast
7:55 AM 44.6 °F 39.7 °F 41.0 °F 87% 29.85 in 10.0 mi NNW 9.2 mph - N/A   Overcast
8:15 AM 44.6 °F 40.2 °F 41.0 °F 87% 29.85 in 10.0 mi NNW 8.1 mph - N/A   Mostly Cloudy
8:35 AM 46.4 °F 42.9 °F 39.2 °F 76% 29.85 in 10.0 mi NW 6.9 mph - N/A   Scattered Clouds
8:55 AM 48.2 °F - 41.0 °F 76% 29.86 in 10.0 mi NW 6.9 mph - N/A   Partly Cloudy
9:35 AM 50.0 °F - 37.4 °F 62% 29.89 in 10.0 mi WNW 11.5 mph 19.6 mph N/A   Mostly Cloudy
9:55 AM 50.0 °F - 37.4 °F 62% 29.91 in 10.0 mi WNW 8.1 mph 16.1 mph N/A   Scattered Clouds
10:15 AM 51.8 °F - 35.6 °F 54% 29.91 in 10.0 mi West 8.1 mph 20.7 mph N/A   Scattered Clouds
10:35 AM 51.8 °F - 35.6 °F 54% 29.92 in 10.0 mi WNW 10.4 mph 18.4 mph N/A   Scattered Clouds
10:55 AM 51.8 °F - 35.6 °F 54% 29.93 in 10.0 mi West 10.4 mph 16.1 mph N/A   Mostly Cloudy
11:15 AM 53.6 °F - 35.6 °F 51% 29.93 in 10.0 mi WNW 9.2 mph - N/A   Mostly Cloudy
11:35 AM 53.6 °F - 33.8 °F 47% 29.92 in 10.0 mi WNW 9.2 mph - N/A   Scattered Clouds
11:55 AM 53.6 °F - 28.4 °F 38% 29.92 in 10.0 mi WNW 9.2 mph 19.6 mph N/A   Partly Cloudy
12:15 PM 55.4 °F - 28.4 °F 36% 29.91 in 10.0 mi NW 9.2 mph 21.9 mph N/A   Partly Cloudy
12:35 PM 55.4 °F - 26.6 °F 33% 29.91 in 10.0 mi NW 11.5 mph 16.1 mph N/A   Partly Cloudy
12:55 PM 55.4 °F - 26.6 °F 33% 29.92 in 10.0 mi WNW 11.5 mph 20.7 mph N/A   Partly Cloudy
1:15 PM 53.6 °F - 23.0 °F 30% 29.92 in 10.0 mi WNW 13.8 mph 23.0 mph N/A   Clear
1:35 PM 53.6 °F - 26.6 °F 35% 29.93 in 10.0 mi NW 8.1 mph - N/A   Clear
1:55 PM 55.4 °F - 26.6 °F 33% 29.93 in 10.0 mi NNW 12.7 mph 24.2 mph N/A   Clear
2:15 PM 55.4 °F - 28.4 °F 36% 29.94 in 10.0 mi WNW 10.4 mph 17.3 mph N/A   Clear
2:35 PM 53.6 °F - 26.6 °F 35% 29.94 in 10.0 mi WNW 12.7 mph 20.7 mph N/A   Partly Cloudy
2:55 PM 55.4 °F - 28.4 °F 36% 29.94 in 10.0 mi WNW 16.1 mph 21.9 mph N/A   Partly Cloudy
3:15 PM 55.4 °F - 28.4 °F 36% 29.95 in 10.0 mi WNW 11.5 mph 17.3 mph N/A   Partly Cloudy
3:35 PM 55.4 °F - 28.4 °F 36% 29.96 in 10.0 mi West 8.1 mph - N/A   Partly Cloudy
3:55 PM 55.4 °F - 28.4 °F 36% 29.96 in 10.0 mi West 6.9 mph 20.7 mph N/A   Clear
4:15 PM 57.2 °F - 28.4 °F 33% 29.97 in 10.0 mi West 5.8 mph - N/A   Partly Cloudy
4:35 PM 57.2 °F - 26.6 °F 31% 29.98 in 10.0 mi WNW 11.5 mph 16.1 mph N/A   Partly Cloudy
4:55 PM 57.2 °F - 26.6 °F 31% 29.99 in 8.0 mi West 5.8 mph 18.4 mph N/A   Clear
5:15 PM 57.2 °F - 26.6 °F 31% 30.00 in 10.0 mi WNW 10.4 mph - N/A   Clear
5:35 PM 55.4 °F - 26.6 °F 33% 30.01 in 10.0 mi WNW 4.6 mph - N/A   Clear
5:55 PM 55.4 °F - 24.8 °F 31% 30.02 in 10.0 mi WNW 9.2 mph 16.1 mph N/A   Clear
6:15 PM 55.4 °F - 24.8 °F 31% 30.02 in 10.0 mi WNW 11.5 mph 20.7 mph N/A   Clear
6:35 PM 55.4 °F - 24.8 °F 31% 30.04 in 10.0 mi WNW 6.9 mph - N/A   Clear
6:55 PM 55.4 °F - 24.8 °F 31% 30.05 in 10.0 mi WNW 6.9 mph - N/A   Clear
7:15 PM 53.6 °F - 23.0 °F 30% 30.07 in 10.0 mi NW 6.9 mph - N/A   Clear
7:35 PM 53.6 °F - 23.0 °F 30% 30.08 in 10.0 mi WNW 10.4 mph 18.4 mph N/A   Clear
7:55 PM 53.6 °F - 23.0 °F 30% 30.10 in 10.0 mi WNW 6.9 mph - N/A   Clear
8:15 PM 53.6 °F - 23.0 °F 30% 30.12 in 10.0 mi WNW 5.8 mph - N/A   Clear
8:35 PM 51.8 °F - 23.0 °F 33% 30.14 in 10.0 mi WNW 9.2 mph - N/A   Clear
8:55 PM 51.8 °F - 23.0 °F 33% 30.15 in 10.0 mi NNW 6.9 mph - N/A   Clear
9:15 PM 51.8 °F - 26.6 °F 38% 30.17 in 10.0 mi NNW 9.2 mph - N/A   Clear
9:35 PM 50.0 °F - 26.6 °F 40% 30.18 in 10.0 mi NNW 10.4 mph 16.1 mph N/A   Clear
9:55 PM 48.2 °F - 26.6 °F 43% 30.19 in 10.0 mi NNW 12.7 mph 21.9 mph N/A   Clear
10:15 PM 48.2 °F - 26.6 °F 43% 30.21 in 10.0 mi NNW 16.1 mph 20.7 mph N/A   Clear
10:35 PM 46.4 °F 39.5 °F 28.4 °F 50% 30.21 in 10.0 mi NNW 17.3 mph 20.7 mph N/A   Clear
10:55 PM 44.6 °F 37.8 °F 26.6 °F 49% 30.23 in 10.0 mi North 15.0 mph 24.2 mph N/A   Clear
11:15 PM 44.6 °F 38.8 °F 26.6 °F 49% 30.25 in 10.0 mi North 11.5 mph 21.9 mph N/A   Clear
11:35 PM 42.8 °F 35.4 °F 26.6 °F 53% 30.26 in 10.0 mi NNW 15.0 mph 23.0 mph N/A   Clear
11:55 PM 42.8 °F 36.2 °F 23.0 °F 46% 30.28 in 10.0 mi North 12.7 mph 23.0 mph N/A   Clear